KF5FGL Weather Reports


time (UTC)temp
C
wind
direction
speed
KPH
gust
KPH
rain 1hr
cm
rain 24hr
cm
rain mn
cm
humidity
%
barometer
mb
20240222104601 18 273 0.0 3.2 0.00 0.00 0.00 90 1011.6
20240222104503 18 273 0.0 3.2 0.00 0.00 0.00 90 1012.0
20240222103101 17 329 1.6 6.4 0.00 0.00 0.00 90 1011.8
20240222103002 18 276 1.6 4.8 0.00 0.00 0.00 90 1012.0
20240222101603 17 221 0.0 4.8 0.00 0.00 0.00 90 1010.5
20240222101502 18 203 1.6 4.8 0.00 0.00 0.00 90 1010.8
20240222100107 17 147 0.0 6.4 0.00 0.00 0.00 90 1010.3
20240222100002 18 196 1.6 6.4 0.00 0.00 0.00 90 1010.5
20240222094601 17 178 1.6 9.7 0.00 0.00 0.00 90 1010.3
20240222093102 17 147 1.6 9.7 0.00 0.00 0.00 89 1010.2
20240222091602 17 174 0.0 8.0 0.00 0.00 0.00 89 1010.4
20240222090106 17 208 0.0 4.8 0.00 0.00 0.00 89 1010.6
20240222090003 18 172 1.6 4.8 0.00 0.00 0.00 89 1010.9
20240222084616 17 198 1.6 8.0 0.00 0.00 0.00 89 1010.8
20240222084502 18 197 1.6 8.0 0.00 0.00 0.00 89 1011.2
20240222083103 17 157 0.0 6.4 0.00 0.00 0.00 89 1011.1
20240222083003 18 174 1.6 6.4 0.00 0.00 0.00 89 1011.4
20240222081601 17 194 0.0 8.0 0.00 0.00 0.00 89 1011.2
20240222081502 18 177 1.6 8.0 0.00 0.00 0.00 89 1011.6
20240222080103 17 153 1.6 12.9 0.00 0.00 0.00 89 1011.3
20240222080003 18 177 1.6 9.7 0.00 0.00 0.00 89 1011.7
20240222074602 18 168 3.2 11.3 0.00 0.00 0.00 89 1011.6
20240222074503 18 174 3.2 12.9 0.00 0.00 0.00 89 1011.9
20240222073101 17 126 1.6 17.7 0.00 0.00 0.00 89 1011.4
20240222073002 18 172 1.6 11.3 0.00 0.00 0.00 89 1011.8
20240222071601 17 212 0.0 11.3 0.00 0.00 0.00 89 1011.8
20240222071503 18 182 3.2 9.7 0.00 0.00 0.00 89 1012.1
20240222070104 17 164 3.2 17.7 0.00 0.00 0.00 90 1011.7
20240222070003 18 170 3.2 17.7 0.00 0.00 0.00 90 1012.0
20240222064601 17 129 0.0 8.0 0.00 0.00 0.00 90 1012.2
20240222064503 17 179 1.6 8.0 0.00 0.00 0.00 90 1012.4
20240222063110 17 183 0.0 12.9 0.00 0.00 0.00 90 1012.2
20240222063002 17 176 1.6 12.9 0.00 0.00 0.00 90 1012.5
20240222061503 17 182 1.6 8.0 0.00 0.00 0.00 90 1012.9
20240222060001 17 173 0.0 8.0 0.00 0.00 0.00 90 1012.6
20240222054503 17 179 1.6 11.3 0.00 0.00 0.00 90 1013.0
20240222053003 17 173 3.2 9.7 0.00 0.00 0.00 89 1013.3
20240222051503 17 189 1.6 11.3 0.00 0.00 0.00 89 1013.5
20240222050005 17 171 0.0 8.0 0.00 0.00 0.00 89 1013.3
20240222050003 17 171 1.6 8.0 0.00 0.00 0.00 89 1013.5
20240222044506 17 169 1.6 9.7 0.00 0.00 0.00 89 1013.3
20240222043003 17 171 1.6 6.4 0.00 0.00 0.00 89 1013.8
20240222041503 17 175 0.0 8.0 0.00 0.00 0.00 89 1013.3
20240222040012 17 144 0.0 6.4 0.00 0.00 0.00 89 1013.5
20240222040003 18 168 1.6 4.8 0.00 0.00 0.00 89 1013.8
20240222034511 17 167 0.0 6.4 0.00 0.00 0.00 88 1013.5
20240222034503 18 171 0.0 4.8 0.00 0.00 0.00 88 1013.7
20240222033115 18 150 0.0 8.0 0.00 0.00 0.00 88 1013.4
20240222031607 18 160 1.6 12.9 0.00 0.00 0.00 87 1012.6
20240222031503 18 149 3.2 12.9 0.00 0.00 0.00 87 1012.7
20240222030103 18 96 4.8 12.9 0.00 0.00 0.00 86 1012.7
20240222030003 18 148 3.2 14.5 0.00 0.00 0.00 86 1012.9
20240222024603 18 118 0.0 14.5 0.00 0.00 0.00 84 1012.7
20240222024503 19 142 3.2 14.5 0.00 0.00 0.00 84 1012.9
20240222023104 19 132 3.2 14.5 0.00 0.00 0.00 83 1012.2
20240222023004 19 148 3.2 14.5 0.00 0.00 0.00 83 1012.5
20240222021603 19 135 1.6 17.7 0.00 0.00 0.00 82 1012.3
20240222021503 20 142 4.8 17.7 0.00 0.00 0.00 82 1012.6
20240222020112 20 165 3.2 12.9 0.00 0.00 0.00 80 1012.3
20240222020003 20 146 4.8 12.9 0.00 0.00 0.00 80 1012.6
20240222014602 20 122 3.2 14.5 0.00 0.00 0.00 78 1012.4
20240222014503 20 141 4.8 14.5 0.00 0.00 0.00 78 1012.7
20240222013008 20 161 0.0 11.3 0.00 0.00 0.00 76 1012.7
20240222013000 21 135 3.2 9.7 0.00 0.00 0.00 76 1012.9
20240222011509 21 143 1.6 11.3 0.00 0.00 0.00 74 1012.8
20240222011500 21 132 1.6 11.3 0.00 0.00 0.00 73 1013.0
20240222010008 21 144 1.6 6.4 0.00 0.00 0.00 72 1012.9
20240222010001 22 136 3.2 6.4 0.00 0.00 0.00 72 1013.2
20240222004509 22 115 1.6 12.9 0.00 0.00 0.00 70 1013.0
20240222004500 22 123 3.2 11.3 0.00 0.00 0.00 70 1013.3
20240222003010 23 140 3.2 16.1 0.00 0.00 0.00 68 1012.8
20240222003001 23 137 3.2 16.1 0.00 0.00 0.00 68 1013.1
20240222001508 23 119 0.0 11.3 0.00 0.00 0.00 66 1013.3
20240222001500 23 147 3.2 9.7 0.00 0.00 0.00 66 1013.5
20240222000009 24 159 1.6 14.5 0.00 0.00 0.00 63 1013.1
20240222000000 24 151 3.2 14.5 0.00 0.00 0.00 63 1013.4
20240221234508 25 146 1.6 14.5 0.00 0.00 0.00 61 1013.0
20240221234500 25 159 1.6 9.7 0.00 0.00 0.00 61 1013.3
20240221233009 25 159 3.2 14.5 0.00 0.00 0.00 59 1012.8
20240221233001 25 150 4.8 14.5 0.00 0.00 0.00 59 1013.1
20240221231508 25 144 6.4 20.9 0.00 0.00 0.00 59 1012.9
20240221231501 25 150 4.8 16.1 0.00 0.00 0.00 59 1013.2
20240221230012 25 157 1.6 14.5 0.00 0.00 0.00 58 1012.9
20240221230000 26 139 4.8 12.9 0.00 0.00 0.00 58 1013.2
20240221224511 25 130 6.4 20.9 0.00 0.00 0.00 58 1013.0
20240221223008 26 109 1.6 12.9 0.00 0.00 0.00 59 1013.2
20240221223000 26 145 3.2 11.3 0.00 0.00 0.00 59 1013.5
20240221221659 26 127 4.8 12.9 0.00 0.00 0.00 60 1013.4
20240221221501 26 163 3.2 14.5 0.00 0.00 0.00 60 1013.9
20240221220010 25 222 4.8 14.5 0.00 0.00 0.00 63 1013.6
20240221220000 25 188 4.8 14.5 0.00 0.00 0.00 63 1013.9
20240221214514 25 245 3.2 14.5 0.00 0.00 0.00 66 1013.8
20240221214501 25 169 4.8 14.5 0.00 0.00 0.00 66 1014.1
20240221213008 24 181 6.4 19.3 0.00 0.00 0.00 67 1014.0
20240221213000 24 150 6.4 16.1 0.00 0.00 0.00 67 1014.3
20240221211509 24 148 4.8 17.7 0.00 0.00 0.00 68 1014.4
20240221211501 24 165 3.2 12.9 0.00 0.00 0.00 68 1014.7
20240221210010 23 123 4.8 16.1 0.00 0.00 0.00 68 1014.8
20240221210000 23 181 4.8 16.1 0.00 0.00 0.00 68 1015.1
20240221204509 23 181 0.0 16.1 0.00 0.00 0.00 70 1015.2
20240221204501 23 181 3.2 16.1 0.00 0.00 0.00 70 1015.6
20240221203008 22 194 1.6 16.1 0.00 0.00 0.00 72 1015.6
20240221203000 22 165 3.2 16.1 0.00 0.00 0.00 72 1016.0
20240221201511 22 142 3.2 11.3 0.00 0.00 0.00 73 1016.1
20240221200009 21 150 3.2 11.3 0.00 0.00 0.00 76 1016.4
20240221200000 21 177 3.2 11.3 0.00 0.00 0.00 76 1016.7
20240221194600 20 180 3.2 24.1 0.00 0.00 0.00 79 1016.8
20240221194501 21 170 6.4 16.1 0.00 0.00 0.00 79 1017.2
20240221193000 21 199 6.4 17.7 0.00 0.00 0.00 79 1017.5
20240221191602 20 147 3.2 16.1 0.00 0.00 0.00 80 1017.8
20240221191501 20 172 4.8 16.1 0.00 0.00 0.00 80 1018.1
20240221190109 20 152 3.2 12.9 0.00 0.00 0.00 80 1018.1
20240221190001 20 172 4.8 12.9 0.00 0.00 0.00 80 1018.4
20240221184600 20 131 3.2 17.7 0.00 0.00 0.00 81 1018.4
20240221184501 20 172 4.8 17.7 0.00 0.00 0.00 81 1018.8
20240221183100 20 210 3.2 16.1 0.00 0.00 0.00 82 1018.8
20240221183001 20 164 3.2 16.1 0.00 0.00 0.00 82 1019.1
20240221181601 20 197 1.6 9.7 0.00 0.00 0.00 84 1019.2
20240221181501 20 171 3.2 9.7 0.00 0.00 0.00 84 1019.6
20240221180101 19 169 3.2 16.1 0.00 0.00 0.00 85 1019.6
20240221180001 19 200 4.8 16.1 0.00 0.00 0.00 85 1019.9
20240221174600 18 210 4.8 16.1 0.00 0.00 0.00 85 1019.8
20240221174501 19 191 3.2 16.1 0.00 0.00 0.00 86 1020.0
20240221173104 18 186 1.6 16.1 0.00 0.00 0.00 86 1020.0
20240221173002 18 191 3.2 16.1 0.00 0.00 0.00 86 1020.4
20240221171604 18 164 1.6 11.3 0.00 0.00 0.00 88 1020.2
20240221171501 18 192 3.2 9.7 0.00 0.00 0.00 89 1020.5
20240221170106 17 221 1.6 9.7 0.00 0.00 0.00 89 1020.5
20240221164640 17 159 0.0 14.5 0.00 0.00 0.00 90 1020.5
20240221164501 17 162 3.2 12.9 0.00 0.00 0.00 90 1020.8
20240221163107 17 201 0.0 11.3 0.00 0.00 0.00 90 1020.6
20240221161607 17 218 3.2 11.3 0.00 0.00 0.00 90 1020.6
20240221161501 17 194 1.6 9.7 0.00 0.00 0.00 90 1020.9
20240221160003 17 208 3.2 11.3 0.00 0.00 0.00 91 1020.7
20240221154637 17 129 1.6 14.5 0.00 0.00 0.00 90 1020.8
20240221153112 17 214 0.0 11.3 0.00 0.00 0.00 90 1020.9
20240221153001 17 201 1.6 8.0 0.00 0.00 0.00 90 1021.1
20240221151502 17 189 1.6 11.3 0.00 0.00 0.00 91 1020.9
20240221150001 17 208 3.2 9.7 0.00 0.00 0.00 91 1020.7
20240221144501 16 176 1.6 12.9 0.00 0.00 0.00 91 1020.4
20240221143002 16 167 1.6 11.3 0.00 0.00 0.00 92 1020.4
20240221141516 16 196 3.2 11.3 0.00 0.00 0.00 93 1020.3
20240221140015 16 183 0.0 11.3 0.00 0.00 0.00 94 1020.3
20240221140002 16 201 1.6 11.3 0.00 0.00 0.00 94 1020.4
20240221134510 16 229 1.6 9.7 0.00 0.00 0.00 94 1020.3
20240221134501 16 189 1.6 9.7 0.00 0.00 0.00 94 1020.4
20240221133010 16 219 1.6 8.0 0.00 0.00 0.00 94 1020.1
20240221133002 16 194 1.6 8.0 0.00 0.00 0.00 94 1020.3
20240221131510 16 173 1.6 9.7 0.00 0.00 0.00 94 1020.1
20240221131502 16 168 1.6 9.7 0.00 0.00 0.00 94 1020.3
20240221130014 16 185 0.0 6.4 0.00 0.00 0.00 95 1020.1
20240221124514 16 206 1.6 9.7 0.00 0.00 0.00 95 1020.1
20240221124502 16 202 3.2 9.7 0.00 0.00 0.00 95 1020.4
20240221123010 16 207 3.2 11.3 0.00 0.00 0.00 95 1020.1
20240221123002 16 193 3.2 11.3 0.00 0.00 0.00 95 1020.2
20240221121510 16 205 3.2 8.0 0.00 0.00 0.00 95 1020.0
20240221120010 16 198 3.2 11.3 0.00 0.00 0.00 96 1020.1
20240221120002 16 205 1.6 11.3 0.00 0.00 0.00 96 1020.2
20240221114510 16 153 1.6 12.9 0.00 0.00 0.00 96 1019.9
20240221114502 16 190 3.2 11.3 0.00 0.00 0.00 96 1020.1
20240221113010 16 128 1.6 12.9 0.00 0.00 0.00 96 1019.9
20240221113002 16 192 3.2 11.3 0.00 0.00 0.00 96 1020.1
20240221111510 16 194 0.0 11.3 0.00 0.00 0.00 96 1019.8
20240221111502 16 194 1.6 11.3 0.00 0.00 0.00 96 1020.0
20240221110011 16 203 0.0 4.8 0.00 0.00 0.00 96 1019.7
20240221110002 16 187 0.0 4.8 0.00 0.00 0.00 96 1019.8